Year,Month,Day,Hour,Minute,Value (Times are PST for temperature in C)
2016,04,27,00,01,8.50
2016,04,27,00,04,8.40
2016,04,27,00,06,8.40
2016,04,27,00,07,8.40
2016,04,27,00,08,8.40
2016,04,27,00,09,8.40
2016,04,27,00,10,8.40
2016,04,27,00,11,8.40
2016,04,27,00,12,8.30
2016,04,27,00,13,8.30
2016,04,27,00,14,8.30
2016,04,27,00,15,8.30
2016,04,27,00,16,8.30
2016,04,27,00,17,8.30
2016,04,27,00,18,8.30
2016,04,27,00,19,8.30
2016,04,27,00,20,8.30
2016,04,27,00,21,8.30
2016,04,27,00,22,8.30
2016,04,27,00,23,8.30
2016,04,27,00,24,8.30
2016,04,27,00,25,8.30
2016,04,27,00,26,8.30
2016,04,27,00,27,8.20
2016,04,27,00,28,8.20
2016,04,27,00,29,8.20
2016,04,27,00,30,8.20
2016,04,27,00,31,8.20
2016,04,27,00,32,8.20
2016,04,27,00,33,8.20
2016,04,27,00,34,8.20
2016,04,27,00,35,8.20
2016,04,27,00,36,8.20
2016,04,27,00,37,8.20
2016,04,27,00,38,8.20
2016,04,27,00,39,8.20
2016,04,27,00,40,8.20
2016,04,27,00,41,8.20
2016,04,27,00,42,8.20
2016,04,27,00,43,8.20
2016,04,27,00,44,8.20
2016,04,27,00,45,8.20
2016,04,27,00,46,8.20
2016,04,27,00,47,8.20
2016,04,27,00,48,8.20
2016,04,27,00,49,8.20
2016,04,27,00,50,8.20
2016,04,27,00,51,8.20
2016,04,27,00,52,8.20
2016,04,27,00,53,8.20
2016,04,27,00,54,8.20
2016,04,27,00,55,8.10
2016,04,27,00,56,8.10
2016,04,27,00,57,8.10
2016,04,27,00,59,8.10
2016,04,27,01,00,8.10
2016,04,27,01,01,8.10
2016,04,27,01,02,8.10
2016,04,27,01,03,8.10
2016,04,27,01,04,8.10
2016,04,27,01,05,8.10
2016,04,27,01,06,8.10
2016,04,27,01,07,8.00
2016,04,27,01,08,8.00
2016,04,27,01,09,8.00
2016,04,27,01,10,8.00
2016,04,27,01,11,8.00
2016,04,27,01,12,8.00
2016,04,27,01,13,8.00
2016,04,27,01,14,7.90
2016,04,27,01,15,7.90
2016,04,27,01,16,7.90
2016,04,27,01,17,7.90
2016,04,27,01,18,7.90
2016,04,27,01,19,7.90
2016,04,27,01,20,7.90
2016,04,27,01,21,7.90
2016,04,27,01,22,7.90
2016,04,27,01,23,7.90
2016,04,27,01,24,7.90
2016,04,27,01,25,7.90
2016,04,27,01,26,7.90
2016,04,27,01,27,7.90
2016,04,27,01,28,7.90
2016,04,27,01,29,7.90
2016,04,27,01,30,7.90
2016,04,27,01,31,7.90
2016,04,27,01,32,7.90
2016,04,27,01,33,7.90
2016,04,27,01,34,7.90
2016,04,27,01,35,7.90
2016,04,27,01,36,7.90
2016,04,27,01,37,7.90
2016,04,27,01,38,7.90
2016,04,27,01,39,7.90
2016,04,27,01,40,7.90
2016,04,27,01,41,7.90
2016,04,27,01,42,7.90
2016,04,27,01,43,7.90
2016,04,27,01,44,7.90
2016,04,27,01,45,7.90
2016,04,27,01,46,7.80
2016,04,27,01,47,7.80
2016,04,27,01,48,7.80
2016,04,27,01,49,7.80
2016,04,27,01,50,7.80
2016,04,27,01,51,7.80
2016,04,27,01,52,7.80
2016,04,27,01,53,7.80
2016,04,27,01,54,7.80
2016,04,27,01,55,7.80
2016,04,27,01,56,7.80
2016,04,27,01,57,7.80
2016,04,27,01,58,7.80
2016,04,27,01,59,7.80
2016,04,27,02,00,7.80
2016,04,27,02,01,7.80
2016,04,27,02,02,7.80
2016,04,27,02,03,7.80
2016,04,27,02,04,7.80
2016,04,27,02,05,7.80
2016,04,27,02,06,7.80
2016,04,27,02,07,7.80
2016,04,27,02,08,7.80
2016,04,27,02,09,7.80
2016,04,27,02,10,7.80
2016,04,27,02,11,7.80
2016,04,27,02,12,7.80
2016,04,27,02,13,7.80
2016,04,27,02,14,7.80
2016,04,27,02,15,7.80
2016,04,27,02,16,7.80
2016,04,27,02,17,7.80
2016,04,27,02,18,7.80
2016,04,27,02,19,7.80
2016,04,27,02,20,7.80
2016,04,27,02,22,7.80
2016,04,27,02,23,7.80
2016,04,27,02,24,7.80
2016,04,27,02,25,7.80
2016,04,27,02,26,7.80
2016,04,27,02,27,7.80
2016,04,27,02,28,7.80
2016,04,27,02,29,7.80
2016,04,27,02,30,7.80
2016,04,27,02,31,7.80
2016,04,27,02,32,7.80
2016,04,27,02,33,7.80
2016,04,27,02,34,7.80
2016,04,27,02,35,7.80
2016,04,27,02,36,7.80
2016,04,27,02,37,7.80
2016,04,27,02,38,7.80
2016,04,27,02,39,7.70
2016,04,27,02,40,7.70
2016,04,27,02,41,7.70
2016,04,27,02,42,7.80
2016,04,27,02,43,7.80
2016,04,27,02,44,7.70
2016,04,27,02,45,7.70
2016,04,27,02,46,7.70
2016,04,27,02,47,7.70
2016,04,27,02,48,7.70
2016,04,27,02,49,7.70
2016,04,27,02,50,7.70
2016,04,27,02,51,7.70
2016,04,27,02,52,7.70
2016,04,27,02,53,7.70
2016,04,27,02,54,7.70
2016,04,27,02,55,7.70
2016,04,27,02,56,7.70
2016,04,27,02,57,7.70
2016,04,27,02,58,7.70
2016,04,27,02,59,7.70
2016,04,27,03,00,7.70
2016,04,27,03,01,7.70
2016,04,27,03,02,7.70
2016,04,27,03,03,7.70
2016,04,27,03,04,7.70
2016,04,27,03,05,7.70
2016,04,27,03,06,7.70
2016,04,27,03,07,7.70
2016,04,27,03,08,7.70
2016,04,27,03,09,7.70
2016,04,27,03,10,7.70
2016,04,27,03,11,7.70
2016,04,27,03,12,7.70
2016,04,27,03,13,7.70
2016,04,27,03,14,7.70
2016,04,27,03,15,7.70
2016,04,27,03,16,7.70
2016,04,27,03,17,7.70
2016,04,27,03,18,7.70
2016,04,27,03,19,7.70
2016,04,27,03,20,7.70
2016,04,27,03,22,7.70
2016,04,27,03,23,7.70
2016,04,27,03,24,7.70
2016,04,27,03,25,7.70
2016,04,27,03,26,7.60
2016,04,27,03,27,7.60
2016,04,27,03,28,7.60
2016,04,27,03,29,7.60
2016,04,27,03,30,7.60
2016,04,27,03,31,7.60
2016,04,27,03,32,7.60
2016,04,27,03,33,7.60
2016,04,27,03,34,7.60
2016,04,27,03,35,7.60
2016,04,27,03,36,7.60
2016,04,27,03,37,7.60
2016,04,27,03,38,7.60
2016,04,27,03,39,7.60
2016,04,27,03,40,7.60
2016,04,27,03,41,7.60
2016,04,27,03,42,7.60
2016,04,27,03,43,7.60
2016,04,27,03,44,7.60
2016,04,27,03,45,7.60
2016,04,27,03,46,7.60
2016,04,27,03,47,7.60
2016,04,27,03,48,7.50
2016,04,27,03,49,7.50
2016,04,27,03,50,7.50
2016,04,27,03,51,7.50
2016,04,27,03,52,7.50
2016,04,27,03,53,7.50
2016,04,27,03,54,7.50
2016,04,27,03,55,7.50
2016,04,27,03,56,7.50
2016,04,27,03,57,7.50
2016,04,27,03,58,7.50
2016,04,27,03,59,7.50
2016,04,27,04,00,7.50
2016,04,27,04,01,7.50
2016,04,27,04,02,7.50
2016,04,27,04,05,7.50
2016,04,27,04,06,7.50
2016,04,27,04,07,7.50
2016,04,27,04,08,7.50
2016,04,27,04,09,7.50
2016,04,27,04,10,7.50
2016,04,27,04,11,7.50
2016,04,27,04,12,7.50
2016,04,27,04,13,7.50
2016,04,27,04,14,7.50
2016,04,27,04,15,7.50
2016,04,27,04,16,7.50
2016,04,27,04,17,7.50
2016,04,27,04,18,7.50
2016,04,27,04,19,7.50
2016,04,27,04,20,7.50
2016,04,27,04,21,7.50
2016,04,27,04,22,7.40
2016,04,27,04,23,7.50
2016,04,27,04,24,7.40
2016,04,27,04,25,7.40
2016,04,27,04,26,7.40
2016,04,27,04,27,7.40
2016,04,27,04,28,7.40
2016,04,27,04,29,7.40
2016,04,27,04,30,7.40
2016,04,27,04,31,7.40
2016,04,27,04,32,7.40
2016,04,27,04,33,7.40
2016,04,27,04,34,7.40
2016,04,27,04,35,7.40
2016,04,27,04,36,7.40
2016,04,27,04,37,7.40
2016,04,27,04,38,7.40
2016,04,27,04,39,7.40
2016,04,27,04,40,7.40
2016,04,27,04,41,7.30
2016,04,27,04,42,7.30
2016,04,27,04,43,7.30
2016,04,27,04,44,7.30
2016,04,27,04,45,7.30
2016,04,27,04,46,7.30
2016,04,27,04,47,7.30
2016,04,27,04,48,7.30
2016,04,27,04,49,7.30
2016,04,27,04,50,7.30
2016,04,27,04,53,7.30
2016,04,27,04,55,7.30
2016,04,27,04,56,7.30
2016,04,27,04,57,7.30
2016,04,27,04,58,7.30
2016,04,27,04,59,7.30
2016,04,27,05,00,7.30
2016,04,27,05,01,7.30
2016,04,27,05,02,7.30
2016,04,27,05,03,7.30
2016,04,27,05,04,7.30
2016,04,27,05,05,7.30
2016,04,27,05,06,7.30
2016,04,27,05,07,7.30
2016,04,27,05,08,7.30
2016,04,27,05,09,7.30
2016,04,27,05,10,7.30
2016,04,27,05,11,7.30
2016,04,27,05,12,7.30
2016,04,27,05,13,7.30
2016,04,27,05,14,7.30
2016,04,27,05,15,7.30
2016,04,27,05,16,7.30
2016,04,27,05,17,7.30
2016,04,27,05,18,7.30
2016,04,27,05,19,7.30
2016,04,27,05,20,7.30
2016,04,27,05,21,7.30
2016,04,27,05,22,7.30
2016,04,27,05,23,7.30
2016,04,27,05,24,7.30
2016,04,27,05,25,7.30
2016,04,27,05,26,7.30
2016,04,27,05,27,7.30
2016,04,27,05,28,7.30
2016,04,27,05,29,7.30
2016,04,27,05,30,7.30
2016,04,27,05,31,7.30
2016,04,27,05,32,7.30
2016,04,27,05,33,7.30
2016,04,27,05,34,7.30
2016,04,27,05,35,7.20
2016,04,27,05,36,7.30
2016,04,27,05,37,7.30
2016,04,27,05,38,7.20
2016,04,27,05,39,7.20
2016,04,27,05,40,7.20
2016,04,27,05,41,7.20
2016,04,27,05,42,7.20
2016,04,27,05,43,7.20
2016,04,27,05,44,7.20
2016,04,27,05,45,7.20
2016,04,27,05,48,7.20
2016,04,27,05,49,7.20
2016,04,27,05,50,7.20
2016,04,27,05,51,7.20
2016,04,27,05,52,7.20
2016,04,27,05,53,7.20
2016,04,27,05,54,7.20
2016,04,27,05,55,7.20
2016,04,27,05,56,7.20
2016,04,27,05,57,7.20
2016,04,27,05,58,7.20
2016,04,27,05,59,7.20
2016,04,27,06,00,7.20
2016,04,27,06,01,7.20
2016,04,27,06,02,7.20
2016,04,27,06,03,7.20
2016,04,27,06,04,7.20
2016,04,27,06,05,7.20
2016,04,27,06,06,7.20
2016,04,27,06,07,7.20
2016,04,27,06,10,7.20
2016,04,27,06,12,7.20
2016,04,27,06,14,7.20
2016,04,27,06,16,7.20
2016,04,27,06,18,7.20
2016,04,27,06,20,7.20
2016,04,27,06,22,7.30
2016,04,27,06,24,7.30
2016,04,27,06,26,7.30
2016,04,27,06,28,7.30
2016,04,27,06,30,7.30
2016,04,27,06,32,7.30
2016,04,27,06,34,7.30
2016,04,27,06,36,7.30
2016,04,27,06,38,7.30
2016,04,27,06,40,7.30
2016,04,27,06,42,7.30
2016,04,27,06,44,7.30
2016,04,27,06,46,7.30
2016,04,27,06,48,7.30
2016,04,27,06,50,7.30
2016,04,27,06,52,7.30
2016,04,27,06,54,7.30
2016,04,27,06,56,7.30
2016,04,27,06,58,7.30
2016,04,27,07,00,7.30
2016,04,27,07,02,7.30
2016,04,27,07,04,7.30
2016,04,27,07,06,7.30
2016,04,27,07,08,7.30
2016,04,27,07,10,7.30
2016,04,27,07,12,7.30
2016,04,27,07,14,7.30
2016,04,27,07,16,7.30
2016,04,27,07,18,7.30
2016,04,27,07,20,7.30
2016,04,27,07,22,7.30
2016,04,27,07,24,7.30
2016,04,27,07,26,7.30
2016,04,27,07,28,7.30
2016,04,27,07,30,7.30
2016,04,27,07,32,7.30
2016,04,27,07,34,7.30
2016,04,27,07,36,7.30
2016,04,27,07,38,7.30
2016,04,27,07,40,7.40
2016,04,27,07,42,7.40
2016,04,27,07,44,7.40
2016,04,27,07,46,7.40
2016,04,27,07,48,7.40
2016,04,27,07,50,7.30
2016,04,27,07,52,7.30
2016,04,27,07,54,7.30
2016,04,27,07,56,7.30
2016,04,27,07,58,7.30
2016,04,27,08,00,7.40
2016,04,27,08,02,7.40
2016,04,27,08,03,7.40
2016,04,27,08,04,7.40
2016,04,27,08,06,7.40
2016,04,27,08,08,7.40
2016,04,27,08,10,7.50
2016,04,27,08,12,7.50
2016,04,27,08,14,7.60
2016,04,27,08,16,7.60
2016,04,27,08,18,7.50
2016,04,27,08,20,7.60
2016,04,27,08,22,7.60
2016,04,27,08,24,7.60
2016,04,27,08,26,7.60
2016,04,27,08,28,7.60
2016,04,27,08,30,7.70
2016,04,27,08,32,7.70
2016,04,27,08,34,7.70
2016,04,27,08,36,7.70
2016,04,27,08,38,7.70
2016,04,27,08,40,7.70
2016,04,27,08,42,7.80
2016,04,27,08,44,7.80
2016,04,27,08,46,7.80
2016,04,27,08,48,7.80
2016,04,27,08,50,7.90
2016,04,27,08,52,7.90
2016,04,27,08,54,7.90
2016,04,27,08,56,8.00
2016,04,27,08,58,8.10
2016,04,27,09,00,8.10
2016,04,27,09,02,8.20
2016,04,27,09,04,8.30
2016,04,27,09,06,8.30
2016,04,27,09,08,8.40
2016,04,27,09,10,8.40
2016,04,27,09,12,8.50
2016,04,27,09,14,8.60
2016,04,27,09,16,8.60
2016,04,27,09,18,8.60
2016,04,27,09,20,8.70
2016,04,27,09,22,8.70
2016,04,27,09,24,8.70
2016,04,27,09,26,8.80
2016,04,27,09,28,8.80
2016,04,27,09,30,8.80
2016,04,27,09,32,8.80
2016,04,27,09,34,8.80
2016,04,27,09,36,8.80
2016,04,27,09,38,8.80
2016,04,27,09,40,8.80
2016,04,27,09,42,8.80
2016,04,27,09,44,8.80
2016,04,27,09,46,8.80
2016,04,27,09,48,8.90
2016,04,27,09,50,8.90
2016,04,27,09,52,9.00
2016,04,27,09,54,9.00
2016,04,27,09,56,9.10
2016,04,27,09,58,9.20
2016,04,27,10,00,9.20
2016,04,27,10,02,9.30
2016,04,27,10,04,9.30
2016,04,27,10,06,9.40
2016,04,27,10,08,9.40
2016,04,27,10,10,9.50
2016,04,27,10,12,9.60
2016,04,27,10,14,9.60
2016,04,27,10,16,9.60
2016,04,27,10,18,9.60
2016,04,27,10,20,9.70
2016,04,27,10,22,9.80
2016,04,27,10,24,9.80
2016,04,27,10,26,9.90
2016,04,27,10,28,9.90
2016,04,27,10,30,10.00
2016,04,27,10,32,10.10
2016,04,27,10,34,10.10
2016,04,27,10,36,10.10
2016,04,27,10,38,10.20
2016,04,27,10,40,10.20
2016,04,27,10,42,10.20
2016,04,27,10,44,10.20
2016,04,27,10,46,10.20
2016,04,27,10,48,10.20
2016,04,27,10,50,10.30
2016,04,27,10,52,10.40
2016,04,27,10,54,10.60
2016,04,27,10,56,10.70
2016,04,27,10,58,10.80
2016,04,27,11,00,10.90
2016,04,27,11,02,11.10
2016,04,27,11,04,11.20
2016,04,27,11,06,11.30
2016,04,27,11,08,11.30
2016,04,27,11,10,11.30
2016,04,27,11,12,11.30
2016,04,27,11,14,11.30
2016,04,27,11,16,11.40
2016,04,27,11,18,11.40
2016,04,27,11,20,11.40
2016,04,27,11,22,11.60
2016,04,27,11,24,11.60
2016,04,27,11,26,11.70
2016,04,27,11,28,11.80
2016,04,27,11,30,11.90
2016,04,27,11,32,12.00
2016,04,27,11,34,12.10
2016,04,27,11,36,12.20
2016,04,27,11,38,12.30
2016,04,27,11,40,12.30
2016,04,27,11,42,12.40
2016,04,27,11,44,12.50
2016,04,27,11,46,12.60
2016,04,27,11,48,12.70
2016,04,27,11,50,12.70
2016,04,27,11,52,12.60
2016,04,27,11,54,12.50
2016,04,27,11,56,12.40
2016,04,27,11,58,12.40
2016,04,27,12,00,12.50
2016,04,27,12,02,12.50
2016,04,27,12,04,12.40
2016,04,27,12,06,12.40
2016,04,27,12,08,12.60
2016,04,27,12,10,12.70
2016,04,27,12,12,12.80
2016,04,27,12,14,12.90
2016,04,27,12,16,12.90
2016,04,27,12,18,12.90
2016,04,27,12,20,12.90
2016,04,27,12,22,12.90
2016,04,27,12,24,12.90
2016,04,27,12,26,13.10
2016,04,27,12,28,13.30
2016,04,27,12,30,13.50
2016,04,27,12,32,13.60
2016,04,27,12,34,13.70
2016,04,27,12,36,13.70
2016,04,27,12,38,13.80
2016,04,27,12,40,13.70
2016,04,27,12,42,13.80
2016,04,27,12,44,13.80
2016,04,27,12,46,13.90
2016,04,27,12,48,13.90
2016,04,27,12,50,13.90
2016,04,27,12,52,14.00
2016,04,27,12,54,14.20
2016,04,27,12,56,14.20
2016,04,27,12,58,14.30
2016,04,27,13,00,14.20
2016,04,27,13,02,14.20
2016,04,27,13,04,14.20
2016,04,27,13,06,14.20
2016,04,27,13,08,14.20
2016,04,27,13,10,14.30
2016,04,27,13,12,14.30
2016,04,27,13,14,14.60
2016,04,27,13,16,14.70
2016,04,27,13,18,14.70
2016,04,27,13,20,14.60
2016,04,27,13,22,14.60
2016,04,27,13,24,14.60
2016,04,27,13,26,14.70
2016,04,27,13,28,14.90
2016,04,27,13,30,15.10
2016,04,27,13,32,15.20
2016,04,27,13,34,15.40
2016,04,27,13,36,15.50
2016,04,27,13,38,15.60
2016,04,27,13,40,15.70
2016,04,27,13,42,15.60
2016,04,27,13,44,15.40
2016,04,27,13,46,15.30
2016,04,27,13,48,15.30
2016,04,27,13,50,15.30
2016,04,27,13,52,15.30
2016,04,27,13,54,15.30
2016,04,27,13,56,15.20
2016,04,27,13,58,15.30
2016,04,27,14,00,15.40
2016,04,27,14,02,15.40
2016,04,27,14,04,15.50
2016,04,27,14,06,15.60
2016,04,27,14,08,15.60
2016,04,27,14,10,15.60
2016,04,27,14,12,15.70
2016,04,27,14,14,15.70
2016,04,27,14,16,15.70
2016,04,27,14,18,15.70
2016,04,27,14,20,15.90
2016,04,27,14,22,16.10
2016,04,27,14,24,16.30
2016,04,27,14,26,16.40
2016,04,27,14,28,16.40
2016,04,27,14,30,16.30
2016,04,27,14,32,16.30
2016,04,27,14,34,16.30
2016,04,27,14,36,16.30
2016,04,27,14,38,16.20
2016,04,27,14,40,16.20
2016,04,27,14,42,16.30
2016,04,27,14,44,16.40
2016,04,27,14,46,16.50
2016,04,27,14,48,16.60
2016,04,27,14,50,16.60
2016,04,27,14,52,16.70
2016,04,27,14,54,16.80
2016,04,27,14,56,16.90
2016,04,27,14,58,17.10
2016,04,27,15,00,17.30
2016,04,27,15,02,17.40
2016,04,27,15,04,17.50
2016,04,27,15,06,17.60
2016,04,27,15,08,17.70
2016,04,27,15,10,17.70
2016,04,27,15,12,17.70
2016,04,27,15,14,17.70
2016,04,27,15,16,17.70
2016,04,27,15,18,17.80
2016,04,27,15,20,17.80
2016,04,27,15,22,17.90
2016,04,27,15,24,18.10
2016,04,27,15,26,18.20
2016,04,27,15,28,18.20
2016,04,27,15,30,18.00
2016,04,27,15,32,17.80
2016,04,27,15,34,17.70
2016,04,27,15,36,17.60
2016,04,27,15,38,17.60
2016,04,27,15,40,17.70
2016,04,27,15,42,17.80
2016,04,27,15,44,17.90
2016,04,27,15,46,17.90
2016,04,27,15,48,17.80
2016,04,27,15,50,17.80
2016,04,27,15,52,17.80
2016,04,27,15,54,17.80
2016,04,27,15,56,17.70
2016,04,27,15,58,17.60
2016,04,27,16,00,17.60
2016,04,27,16,02,17.50
2016,04,27,16,04,17.50
2016,04,27,16,06,17.70
2016,04,27,16,08,17.80
2016,04,27,16,10,17.80
2016,04,27,16,12,17.80
2016,04,27,16,14,17.80
2016,04,27,16,16,17.70
2016,04,27,16,18,17.60
2016,04,27,16,20,17.70
2016,04,27,16,22,17.90
2016,04,27,16,24,18.10
2016,04,27,16,26,18.00
2016,04,27,16,28,17.80
2016,04,27,16,30,17.80
2016,04,27,16,32,17.80
2016,04,27,16,34,17.80
2016,04,27,16,36,17.80
2016,04,27,16,38,17.80
2016,04,27,16,40,17.80
2016,04,27,16,42,17.80
2016,04,27,16,44,17.80
2016,04,27,16,46,17.80
2016,04,27,16,48,17.70
2016,04,27,16,50,17.60
2016,04,27,16,52,17.60
2016,04,27,16,54,17.60
2016,04,27,16,56,17.70
2016,04,27,16,58,17.70
2016,04,27,17,00,17.70
2016,04,27,17,02,17.70
2016,04,27,17,04,17.60
2016,04,27,17,06,17.40
2016,04,27,17,08,17.30
2016,04,27,17,10,17.30
2016,04,27,17,12,17.10
2016,04,27,17,14,16.90
2016,04,27,17,16,16.80
2016,04,27,17,18,16.60
2016,04,27,17,20,16.50
2016,04,27,17,22,16.40
2016,04,27,17,24,16.30
2016,04,27,17,26,16.20
2016,04,27,17,28,16.10
2016,04,27,17,30,16.00
2016,04,27,17,32,15.90
2016,04,27,17,34,15.90
2016,04,27,17,36,15.90
2016,04,27,17,38,15.80
2016,04,27,17,40,15.80
2016,04,27,17,42,15.80
2016,04,27,17,44,15.80
2016,04,27,17,46,15.90
2016,04,27,17,48,15.90
2016,04,27,17,50,16.10
2016,04,27,17,52,16.10
2016,04,27,17,54,16.10
2016,04,27,17,56,16.20
2016,04,27,17,58,16.20
2016,04,27,18,00,16.30
2016,04,27,18,02,16.30
2016,04,27,18,04,16.30
2016,04,27,18,06,16.30
2016,04,27,18,08,16.30
2016,04,27,18,10,16.30
2016,04,27,18,12,16.30
2016,04,27,18,14,16.30
2016,04,27,18,16,16.40
2016,04,27,18,18,16.40
2016,04,27,18,20,16.30
2016,04,27,18,22,16.30
2016,04,27,18,24,16.20
2016,04,27,18,26,16.20
2016,04,27,18,28,16.10
2016,04,27,18,30,16.10
2016,04,27,18,32,16.10
2016,04,27,18,34,16.00
2016,04,27,18,36,16.00
2016,04,27,18,38,15.90
2016,04,27,18,40,15.90
2016,04,27,18,42,15.90
2016,04,27,18,44,15.90
2016,04,27,18,46,15.80
2016,04,27,18,48,15.80
2016,04,27,18,50,15.80
2016,04,27,18,52,15.70
2016,04,27,18,54,15.70
2016,04,27,18,56,15.60
2016,04,27,18,58,15.60
2016,04,27,19,00,15.50
2016,04,27,19,02,15.40
2016,04,27,19,04,15.40
2016,04,27,19,06,15.30
2016,04,27,19,08,15.30
2016,04,27,19,10,15.30
2016,04,27,19,12,15.20
2016,04,27,19,14,15.20
2016,04,27,19,16,15.20
2016,04,27,19,18,15.10
2016,04,27,19,20,15.10
2016,04,27,19,22,15.10
2016,04,27,19,24,15.10
2016,04,27,19,26,15.00
2016,04,27,19,28,15.00
2016,04,27,19,30,15.00
2016,04,27,19,32,14.90
2016,04,27,19,34,14.90
2016,04,27,19,36,14.80
2016,04,27,19,38,14.80
2016,04,27,19,40,14.80
2016,04,27,19,42,14.80
2016,04,27,19,44,14.70
2016,04,27,19,46,14.70
2016,04,27,19,48,14.70
2016,04,27,19,50,14.70
2016,04,27,19,52,14.60
2016,04,27,19,54,14.60
2016,04,27,19,56,14.60
2016,04,27,19,58,14.50
2016,04,27,20,00,14.40
2016,04,27,20,02,14.40
2016,04,27,20,04,14.40
2016,04,27,20,06,14.30
2016,04,27,20,08,14.30
2016,04,27,20,10,14.30
2016,04,27,20,12,14.20
2016,04,27,20,14,14.20
2016,04,27,20,16,14.20
2016,04,27,20,18,14.20
2016,04,27,20,20,14.10
2016,04,27,20,22,14.10
2016,04,27,20,24,14.10
2016,04,27,20,26,13.90
2016,04,27,20,28,13.90
2016,04,27,20,30,13.80
2016,04,27,20,32,13.80
2016,04,27,20,34,13.70
2016,04,27,20,36,13.70
2016,04,27,20,38,13.60
2016,04,27,20,40,13.60
2016,04,27,20,42,13.40
2016,04,27,20,44,13.40
2016,04,27,20,46,13.30
2016,04,27,20,48,13.20
2016,04,27,20,50,13.20
2016,04,27,20,52,13.10
2016,04,27,20,54,13.10
2016,04,27,20,56,12.90
2016,04,27,20,58,12.80
2016,04,27,21,00,12.80
2016,04,27,21,02,12.70
2016,04,27,21,04,12.60
2016,04,27,21,06,12.40
2016,04,27,21,08,12.40
2016,04,27,21,10,12.30
2016,04,27,21,12,12.20
2016,04,27,21,14,12.10
2016,04,27,21,16,12.00
2016,04,27,21,18,11.90
2016,04,27,21,20,11.90
2016,04,27,21,22,11.80
2016,04,27,21,24,11.70
2016,04,27,21,26,11.70
2016,04,27,21,28,11.70
2016,04,27,21,30,11.60
2016,04,27,21,32,11.60
2016,04,27,21,34,11.50
2016,04,27,21,36,11.50
2016,04,27,21,38,11.40
2016,04,27,21,40,11.40
2016,04,27,21,42,11.30
2016,04,27,21,44,11.30
2016,04,27,21,46,11.20
2016,04,27,21,48,11.20
2016,04,27,21,50,11.20
2016,04,27,21,52,11.20
2016,04,27,21,54,11.20
2016,04,27,21,56,11.10
2016,04,27,21,58,11.10
2016,04,27,22,00,11.10
2016,04,27,22,02,11.00
2016,04,27,22,04,11.00
2016,04,27,22,06,10.90
2016,04,27,22,08,10.90
2016,04,27,22,10,10.80
2016,04,27,22,12,10.80
2016,04,27,22,14,10.80
2016,04,27,22,16,10.70
2016,04,27,22,18,10.70
2016,04,27,22,20,10.70
2016,04,27,22,22,10.70
2016,04,27,22,24,10.60
2016,04,27,22,26,10.60
2016,04,27,22,28,10.50
2016,04,27,22,30,10.50
2016,04,27,22,32,10.40
2016,04,27,22,34,10.40
2016,04,27,22,36,10.30
2016,04,27,22,38,10.30
2016,04,27,22,40,10.30
2016,04,27,22,42,10.20
2016,04,27,22,44,10.20
2016,04,27,22,46,10.20
2016,04,27,22,48,10.20
2016,04,27,22,50,10.20
2016,04,27,22,52,10.10
2016,04,27,22,54,10.10
2016,04,27,22,56,10.10
2016,04,27,22,59,10.00
2016,04,27,23,00,10.00
2016,04,27,23,02,9.90
2016,04,27,23,03,9.90
2016,04,27,23,04,9.90
2016,04,27,23,05,9.90
2016,04,27,23,06,9.90
2016,04,27,23,07,9.90
2016,04,27,23,08,9.80
2016,04,27,23,09,9.80
2016,04,27,23,10,9.80
2016,04,27,23,11,9.80
2016,04,27,23,12,9.80
2016,04,27,23,13,9.80
2016,04,27,23,14,9.70
2016,04,27,23,15,9.70
2016,04,27,23,16,9.70
2016,04,27,23,17,9.70
2016,04,27,23,18,9.70
2016,04,27,23,19,9.60
2016,04,27,23,21,9.60
2016,04,27,23,22,9.60
2016,04,27,23,23,9.60
2016,04,27,23,24,9.60
2016,04,27,23,25,9.60
2016,04,27,23,26,9.60
2016,04,27,23,27,9.50
2016,04,27,23,28,9.50
2016,04,27,23,29,9.50
2016,04,27,23,30,9.40
2016,04,27,23,31,9.40
2016,04,27,23,32,9.40
2016,04,27,23,33,9.40
2016,04,27,23,34,9.40
2016,04,27,23,35,9.40
2016,04,27,23,36,9.40
2016,04,27,23,37,9.40
2016,04,27,23,38,9.30
2016,04,27,23,39,9.30
2016,04,27,23,40,9.30
2016,04,27,23,41,9.30
2016,04,27,23,42,9.30
2016,04,27,23,43,9.30
2016,04,27,23,44,9.30
2016,04,27,23,45,9.30
2016,04,27,23,46,9.30
2016,04,27,23,47,9.30
2016,04,27,23,48,9.20
2016,04,27,23,49,9.20
2016,04,27,23,50,9.20
2016,04,27,23,51,9.20
2016,04,27,23,52,9.20
2016,04,27,23,53,9.20
2016,04,27,23,54,9.20
2016,04,27,23,55,9.10
2016,04,27,23,56,9.10
2016,04,27,23,57,9.10
2016,04,27,23,58,9.10
2016,04,27,23,59,9.00
